Location: Casteau
(50.5142°N, 4.0161°E)
Time: 21:08:26
(UTC+00:00)

Tiros 1 - Pass Details

Date: 03 August 2021
Orbit: 630 x 663 km, 48.4° (Epoch: 28 September)

Event Time Altitude Azimuth Distance (km) Brightness Sun altitude
Rises 18:54:06 0° 255° (WSW) 2,983 11.5 3.6°
Reaches altitude 10° 18:56:28 10° 253° (WSW) 2,068 10.6 3.2°
Maximum altitude 19:01:11 65° 172° (S) 718 7.4 2.5°
Drops below altitude 10° 19:05:52 10° 91° (E) 2,050 9.2 1.8°
Sets 19:08:13 0° 88° (E) 2,955 10.0 1.5°
